Retour au catalogue

FENGYUN 1C DEB

ActifPO
NORAD 30575·DEBRIS·🇨🇳 China

Lancé May 10, 1999 depuis Taiyuan Satellite Launch Center

Loading…

Prochains Passages (prochaines 24 heures)

TLE

FraisSource: Space-Track

Époque: Sep 14, 2026, 14:13 UTC

1 30575U 99025ALR 26257.59299209  .00001836  00000-0  57124-3 0  9992
2 30575  99.1771  13.2880 0054055 145.9976 227.9089 14.41464886 21813

Suivez FENGYUN 1C DEB en temps réel avec AllMySat

Download on the App Store